Theta_e
288 289 289 290 290 291 291 291 291 290 291 290 289 288 288 289 289 289 290 290 291 291 291 290 290 290 291 291 292 292 292 292 292 292 293 293 294 294 295 295 295 295 295 294 294 294 294 294 294 293 293 293 292 292 291 292 292 291 290 290 290 290
288 288 289 289 290 290 291 291 290 289 289 289 288 288 288 288 288 288 288 289 289 290 290 290 290 290 289 289 290 290 290 291 291 291 291 292 292 293 293 293 293 293 293 293 293 293 293 293 293 293 292 292 292 291 291 291 291 290 289 290 290 290
288 289 289 290 290 290 290 290 290 289 289 288 288 287 286 286 287 287 287 287 287 288 288 288 289 288 289 288 289 288 289 290 290 291 291 291 291 292 291 292 292 292 293 293 292 292 292 292 292 292 292 291 291 291 290 290 290 289 289 289 289 289
287 288 289 289 289 289 289 290 289 288 288 288 288 288 287 286 286 287 287 287 287 287 287 287 288 288 287 287 287 286 288 288 289 289 290 290 290 291 291 291 291 291 292 292 292 292 291 291 291 291 291 290 290 289 290 290 289 288 288 288 288 288
287 287 287 287 287 287 288 288 287 287 287 287 287 287 286 287 287 288 287 286 286 286 286 286 286 286 285 285 286 285 286 287 288 289 288 289 289 290 290 290 290 290 290 290 291 291 291 291 291 291 290 290 289 289 289 289 289 288 288 287 288 288
286 286 286 286 286 286 287 287 287 287 287 286 287 286 285 285 286 287 287 287 286 286 285 285 286 285 285 284 285 285 286 286 286 287 288 288 288 288 289 289 289 289 289 289 289 290 290 290 290 290 290 289 289 289 288 288 288 288 288 287 287 288
285 285 286 286 286 287 287 287 287 287 286 286 286 286 286 286 286 286 287 286 285 285 285 286 286 285 285 285 285 285 285 285 286 286 286 286 286 287 287 287 288 288 288 288 288 288 289 289 289 289 289 289 289 288 288 288 288 288 288 288 288 288
285 285 285 285 285 286 286 287 287 287 287 287 287 286 286 286 286 285 286 286 285 285 285 285 286 286 286 285 285 285 285 285 285 286 286 286 286 287 287 287 287 287 287 287 287 287 288 288 289 289 289 289 289 288 288 288 287 287 287 287 287 288
284 285 285 285 285 286 286 286 286 286 286 286 286 287 286 286 286 285 285 285 285 284 284 284 285 286 286 286 285 285 285 285 285 285 286 286 285 285 286 286 286 287 286 286 287 287 287 287 288 288 288 288 288 288 287 287 287 287 287 287 287 287
285 285 285 285 285 286 286 286 286 286 286 286 286 286 286 287 285 284 284 284 284 284 284 284 285 286 286 286 286 285 284 284 284 285 286 286 286 286 285 285 285 286 287 287 286 287 287 287 287 287 288 288 287 287 287 287 286 286 286 286 286 286
284 285 285 285 286 285 286 286 286 287 286 286 286 286 285 286 285 284 283 283 283 284 284 284 284 286 286 285 285 284 284 283 283 284 285 285 285 286 286 286 286 285 285 286 286 287 287 287 287 287 287 287 287 287 286 286 286 286 286 285 285 285
285 285 285 285 285 285 285 285 286 286 286 285 285 285 285 285 284 283 283 283 283 283 283 283 283 284 284 284 283 283 282 282 282 283 283 284 285 285 285 285 285 285 285 285 285 286 287 287 287 287 288 289 287 286 286 286 286 285 285 285 285 285
285 285 285 285 285 285 285 286 286 285 285 285 285 285 285 285 283 283 282 282 283 283 283 282 282 283 283 283 282 281 281 280 280 280 282 283 284 284 285 284 284 284 285 285 285 285 286 286 287 288 290 290 290 288 287 286 286 285 285 285 284 284
284 284 284 285 285 285 285 285 285 284 284 284 284 284 285 284 283 282 282 282 282 282 282 281 281 281 282 282 281 280 280 279 279 279 280 282 283 284 284 283 284 284 284 284 284 284 285 286 287 289 289 290 290 290 287 286 286 286 286 285 285 285
284 285 285 285 285 285 286 286 284 284 284 284 284 284 283 283 282 282 281 281 281 281 281 281 280 280 280 281 280 280 279 278 278 278 278 279 281 283 283 283 283 283 284 284 284 284 284 285 287 288 289 289 290 290 289 287 286 286 285 285 285 285
285 285 285 285 286 286 286 285 284 284 284 284 284 283 282 282 282 281 281 281 281 280 281 280 280 279 280 280 279 279 278 277 277 277 277 278 279 281 282 282 282 282 282 283 283 283 283 284 286 288 288 288 289 289 289 287 286 286 286 285 285 285
285 285 285 285 285 285 285 284 284 284 283 283 282 282 281 281 281 280 280 280 280 280 280 279 279 279 279 279 278 278 277 276 276 276 276 276 277 278 279 280 280 281 281 281 282 282 282 283 286 287 287 287 288 289 289 287 287 286 286 286 286 285
285 285 285 286 285 284 284 283 284 282 282 282 281 280 280 280 279 279 279 279 279 279 279 279 278 278 278 278 277 276 275 275 275 274 275 275 276 276 278 278 279 279 280 280 280 280 280 282 284 285 287 287 287 288 287 286 286 286 286 286 286 286
286 286 285 285 284 283 283 283 283 281 281 280 279 279 279 279 278 278 278 278 278 278 278 278 277 277 277 277 276 275 274 274 273 274 274 273 273 274 275 276 277 278 278 278 279 279 280 281 283 285 286 286 287 287 285 285 285 285 285 285 286 286
286 285 285 283 283 283 283 283 281 280 279 278 278 277 277 277 277 277 277 277 277 277 277 277 276 275 275 275 274 273 273 273 273 273 273 272 272 272 273 275 276 277 277 277 278 279 278 279 281 283 284 285 286 286 284 284 284 284 284 285 286 286
285 284 283 283 282 283 282 281 280 278 277 277 276 276 275 275 276 276 275 275 276 276 275 275 275 274 273 273 273 272 272 271 271 272 272 272 272 272 273 274 275 275 275 275 275 277 277 277 279 282 283 284 284 284 283 284 283 283 283 284 284 286
284 283 282 282 281 282 281 280 278 277 275 275 275 274 274 274 274 275 274 274 274 274 273 273 272 272 272 271 271 271 271 271 271 271 271 271 271 271 271 272 272 272 272 273 273 273 274 274 275 278 281 283 283 284 283 283 283 282 282 283 284 284
283 282 281 281 281 279 278 277 276 274 274 273 273 272 273 273 273 272 272 272 272 271 271 270 270 270 270 270 269 269 269 269 270 270 269 269 269 269 270 270 270 270 270 271 271 271 271 273 274 276 280 282 283 284 284 282 282 282 282 282 283 284
281 280 280 280 278 277 276 275 273 273 272 271 270 271 271 271 271 270 270 269 269 268 267 267 267 267 267 267 267 267 267 267 268 268 268 268 268 267 267 268 268 268 268 269 269 269 270 273 275 274 278 280 282 283 284 282 282 283 282 282 282 283
279 278 277 277 276 275 274 273 271 270 270 269 269 269 269 269 268 267 267 266 265 265 265 265 265 265 265 265 265 265 264 265 265 265 266 266 266 266 266 266 266 266 266 267 269 270 271 272 274 277 277 280 281 282 283 284 283 284 284 282 281 282
276 275 274 274 274 273 272 271 269 269 268 267 268 268 267 266 266 265 264 263 263 263 263 263 263 263 263 263 263 263 263 263 263 264 264 264 264 264 264 265 265 266 266 266 267 269 270 272 273 276 278 279 281 281 283 284 284 285 283 283 282 283
272 271 271 272 271 271 270 269 267 266 265 266 266 265 264 264 263 262 262 261 261 261 262 262 262 262 262 262 262 262 262 262 262 262 263 263 263 263 263 264 265 265 265 266 266 267 269 271 273 274 277 279 281 282 283 283 284 285 285 283 283 283
270 269 269 269 270 269 268 267 266 263 264 265 264 264 263 262 261 261 260 260 261 261 261 261 261 261 262 262 262 262 262 261 261 261 261 262 262 262 262 263 263 264 264 265 265 267 268 270 271 273 275 278 279 280 282 283 283 283 284 284 283 284
267 267 267 266 267 267 266 265 264 264 264 263 263 263 262 261 260 260 260 260 260 260 260 260 260 261 261 261 261 262 262 262 261 261 261 261 261 261 261 262 263 263 263 263 264 266 267 268 270 272 274 276 277 278 280 280 280 282 283 282 282 283
266 265 265 264 265 264 264 263 262 262 262 262 262 262 261 260 260 259 259 259 260 260 260 260 261 260 260 261 261 260 261 261 261 260 260 260 260 260 260 261 261 261 262 262 263 264 265 266 268 270 272 275 277 278 279 279 279 279 279 279 280 281
264 264 263 263 263 262 262 261 261 262 261 262 261 261 260 259 260 259 259 259 259 259 260 260 260 260 260 260 260 260 261 260 260 260 261 262 262 261 260 260 260 261 262 262 262 263 263 265 266 268 273 273 276 276 277 278 278 278 278 280 281 281
263 262 261 261 262 261 261 260 261 261 261 261 261 260 259 259 259 259 259 259 259 259 259 259 259 259 259 259 259 259 260 263 266 265 262 262 266 268 269 269 264 264 264 264 264 265 264 264 266 271 273 274 276 277 279 280 281 281 280 281 282 281
261 260 260 260 260 260 260 259 260 260 260 260 261 260 259 259 259 258 258 258 258 259 259 258 258 258 259 259 259 259 259 259 261 266 268 268 268 268 269 270 270 271 271 267 265 267 272 272 273 274 274 275 276 277 277 278 279 281 282 282 280 279
260 259 259 259 259 259 259 259 259 259 260 260 260 260 259 259 258 257 257 258 258 258 258 258 258 258 258 258 259 259 258 258 258 259 264 267 268 268 269 269 270 270 271 271 270 269 267 270 273 274 274 275 276 277 278 278 279 280 281 282 282 278
259 259 259 259 259 258 258 258 259 259 260 260 260 260 259 258 258 257 257 257 257 257 258 258 257 258 258 258 258 258 259 258 258 257 258 260 266 267 268 268 269 269 270 270 271 271 271 271 272 273 273 274 275 276 276 278 280 280 280 281 279 278
259 258 258 258 258 258 258 258 258 259 260 260 260 259 258 258 257 257 257 257 257 257 257 257 257 258 258 258 258 258 258 258 258 258 258 258 258 260 263 266 268 268 269 269 270 270 270 271 271 272 273 274 274 275 276 277 276 280 281 280 278 278
257 257 257 258 258 258 257 258 259 260 260 260 259 258 258 258 258 258 258 258 258 257 257 258 258 258 258 258 258 258 258 258 259 259 258 258 258 258 258 259 261 265 268 265 267 269 270 271 272 272 273 274 275 276 276 277 274 275 277 278 278 278
257 256 257 257 257 257 258 258 259 260 260 259 259 258 258 258 258 258 258 258 258 258 258 258 258 258 258 258 258 259 259 259 259 259 259 259 260 259 259 260 261 262 266 268 269 270 270 271 272 272 273 273 275 276 276 272 271 273 276 277 278 278
Wind_Speed
8 8 9 9 9 9 10 9 10 10 9 10 10 11 11 11 9 9 8 9 8 8 9 10 10 10 10 9 10 9 8 8 7 6 7 6 6 5 5 5 5 5 5 5 6 7 7 8 8 8 8 9 10 10 9 10 10 10 12 12 11 12
5 6 7 8 9 8 8 8 8 10 9 10 9 9 9 10 11 10 9 8 8 8 8 8 8 9 9 10 9 9 10 9 9 8 7 7 6 5 5 5 6 6 6 6 6 7 7 7 8 8 9 8 10 9 9 10 11 12 13 12 11 10
4 3 3 3 3 4 6 7 7 8 8 8 8 9 8 9 8 8 8 8 8 8 8 8 7 9 8 8 9 9 9 10 9 9 8 8 7 7 6 6 6 6 6 6 6 6 7 7 8 7 8 9 9 10 11 10 11 13 12 12 13 12
4 4 4 4 4 4 4 4 4 6 7 7 6 5 6 7 8 8 6 5 5 6 8 8 6 6 6 7 7 8 8 8 8 8 9 8 8 8 8 8 7 6 6 6 7 7 7 8 8 8 8 9 9 10 8 9 11 12 13 13 14 13
3 3 4 4 4 4 4 3 4 4 5 5 5 6 7 7 7 7 6 6 6 6 5 4 5 6 6 6 5 7 8 7 7 8 8 9 9 9 9 8 8 8 7 7 7 7 7 7 8 8 8 9 10 11 10 10 11 12 13 13 15 14
3 2 3 3 4 3 4 4 2 2 2 2 2 3 4 4 5 6 6 7 7 5 4 6 6 6 6 7 7 8 9 7 6 6 7 8 8 9 9 9 9 8 7 7 7 8 7 8 9 9 8 10 10 10 11 10 12 13 13 13 14 13
5 5 5 5 5 4 4 4 5 5 4 4 5 4 4 4 4 6 6 6 7 7 7 8 6 6 7 7 7 7 8 8 9 9 9 8 8 8 8 8 8 8 8 7 8 8 9 9 9 9 10 10 9 10 11 11 11 12 14 15 15 14
5 6 7 7 7 8 8 9 9 8 8 8 7 7 7 7 7 8 8 8 8 8 8 8 8 8 7 6 6 7 8 8 7 7 8 8 9 9 8 7 8 7 8 8 7 8 9 9 9 10 10 10 10 10 10 11 11 12 12 13 14 14
3 3 4 4 5 6 6 7 9 9 9 11 10 9 8 8 8 9 9 9 9 9 9 9 9 8 8 8 8 7 7 7 8 9 9 8 7 8 7 8 8 7 6 8 8 8 8 8 9 10 10 10 11 11 11 11 12 12 12 12 12 12
4 4 4 4 4 5 5 6 6 7 7 8 8 9 8 6 8 9 9 9 9 8 8 9 9 9 8 8 8 9 9 9 9 8 7 7 9 9 9 9 9 8 7 7 7 8 7 8 8 9 9 10 10 11 12 12 12 13 13 14 13 13
5 5 5 5 5 6 6 6 6 6 6 7 8 8 8 8 8 9 10 10 10 9 9 8 8 7 7 7 8 9 9 9 10 10 9 8 8 7 8 8 8 9 10 8 8 8 7 7 7 7 8 9 10 9 11 12 12 13 14 14 14 14
5 5 5 5 6 6 6 6 6 6 7 7 7 7 8 7 8 9 9 9 9 9 9 10 9 8 7 7 6 8 9 10 10 10 10 10 10 9 9 9 9 9 9 10 9 9 7 6 6 9 15 14 11 11 10 10 11 11 12 13 14 14
5 5 5 5 5 6 6 6 6 6 7 8 7 8 7 7 8 8 8 10 9 9 9 9 9 9 10 8 7 5 4 8 8 10 11 11 10 11 11 9 9 9 9 10 9 9 8 7 7 12 13 14 18 14 12 11 11 11 12 13 14 14
6 5 5 5 5 6 6 6 6 6 7 7 7 7 7 7 7 8 9 9 9 10 10 9 9 10 10 8 8 7 7 7 8 10 11 10 11 12 11 12 12 10 9 9 10 11 9 8 10 13 14 16 17 16 12 10 10 11 12 13 14 14
6 6 6 6 6 6 7 6 7 7 7 7 7 7 8 8 8 9 9 9 9 10 9 9 8 9 9 8 7 7 9 10 11 11 10 13 12 10 11 15 13 12 12 11 10 10 10 11 12 13 15 16 16 17 16 10 11 11 12 14 14 14
6 7 7 7 7 7 7 7 7 8 7 7 8 8 8 9 9 9 10 10 9 10 10 10 8 9 10 9 8 6 7 10 11 12 10 10 12 11 12 12 13 14 13 11 11 12 11 11 12 16 16 17 17 18 16 11 12 12 13 14 14 14
8 9 8 7 7 7 7 8 8 8 8 8 9 8 9 9 10 10 10 10 10 9 7 10 8 10 9 9 9 9 10 10 10 12 11 10 12 13 13 13 13 13 13 13 12 12 14 12 16 16 18 19 19 19 16 10 11 11 12 14 15 15
10 10 8 6 6 7 7 8 8 8 8 8 9 10 10 10 9 11 10 10 10 10 10 9 9 10 11 10 9 10 11 10 12 14 11 10 11 12 14 14 13 14 15 14 14 14 15 14 18 18 18 17 18 20 11 9 11 11 12 14 15 15
9 6 6 6 6 7 8 8 7 8 9 9 9 8 8 9 9 11 11 10 12 12 11 11 10 11 11 11 13 13 12 14 16 14 10 12 12 13 14 14 15 13 14 16 15 15 15 14 15 18 18 17 19 15 9 10 10 11 12 14 14 14
4 5 5 8 9 8 7 8 8 8 9 8 10 9 11 9 11 11 11 12 11 11 11 11 11 12 12 12 12 14 14 14 12 14 11 12 13 15 16 14 15 14 14 15 16 15 15 16 17 20 20 20 19 16 11 10 11 12 13 13 13 13
5 6 7 8 9 9 9 9 8 7 8 10 11 10 9 10 12 12 11 13 12 12 11 10 11 12 13 15 15 13 15 14 13 13 13 14 14 15 14 14 15 15 15 15 16 21 20 18 20 24 24 24 22 17 11 11 11 12 13 12 13 13
7 9 8 8 9 10 9 8 7 5 8 10 10 9 10 11 11 12 13 13 12 11 10 11 14 15 14 15 15 15 15 14 15 16 14 13 14 15 14 14 15 17 16 15 15 16 17 19 20 23 29 26 26 24 15 11 11 12 13 13 13 13
6 7 8 8 9 8 8 7 6 8 9 10 10 9 11 11 12 12 13 13 13 12 13 13 14 16 16 15 16 16 16 15 14 15 16 16 15 15 16 17 17 18 19 17 17 17 20 19 21 23 30 30 28 28 22 13 14 13 13 13 13 12
6 8 8 7 7 7 7 6 7 9 10 9 9 10 11 12 13 13 13 13 13 14 15 15 15 16 15 15 15 17 17 16 16 16 16 16 16 18 19 19 17 16 19 19 21 21 22 22 28 23 30 34 32 30 29 17 14 15 14 14 13 13
7 8 8 7 7 7 6 6 8 8 8 9 10 11 12 13 13 13 13 14 14 15 17 16 16 16 14 15 16 16 18 18 17 17 17 18 19 19 21 21 20 19 19 18 17 16 18 19 19 28 25 30 33 32 31 30 21 23 18 14 15 15
7 8 8 7 6 5 4 5 8 8 8 11 11 12 12 12 12 13 14 14 14 15 15 15 17 17 14 16 15 16 17 17 16 16 16 17 17 18 18 17 16 16 17 19 18 16 16 17 17 21 28 27 32 33 32 31 31 29 19 15 15 14
9 10 11 7 4 6 5 4 6 9 11 12 11 11 12 12 13 13 14 15 16 15 15 14 14 14 14 15 15 16 16 17 16 16 15 15 16 16 17 17 16 16 17 17 18 17 16 15 16 16 20 29 27 30 32 32 32 30 29 19 15 15
7 8 11 11 6 7 4 4 5 10 13 12 11 12 12 13 14 15 16 16 15 15 14 16 15 15 15 14 12 14 14 15 16 15 15 14 15 16 17 17 17 17 17 17 17 17 17 16 16 17 17 17 20 21 27 31 31 28 28 26 18 20
8 9 10 12 8 6 6 7 7 8 10 11 12 13 14 13 15 17 16 16 14 14 13 15 14 14 13 12 13 14 14 15 14 15 16 14 15 16 16 17 17 17 16 17 17 17 18 17 15 14 14 14 13 13 12 14 18 24 24 19 16 19
8 10 11 11 10 8 8 7 8 10 11 11 12 13 14 15 14 15 16 16 15 15 14 14 18 17 14 14 13 14 15 14 14 16 15 15 15 15 17 16 17 17 16 17 17 17 17 17 16 14 13 13 12 11 10 9 9 10 10 12 12 12
8 9 11 12 10 9 8 8 9 9 11 12 11 13 14 15 17 16 17 17 16 15 14 13 12 13 15 15 15 15 13 14 16 16 18 16 13 16 16 16 17 18 17 18 18 18 18 17 16 14 16 18 22 20 15 10 8 8 9 12 17 11
8 11 12 11 9 9 10 10 10 11 10 11 11 12 13 15 16 17 16 14 14 14 13 12 14 13 15 15 16 14 16 19 25 22 17 18 24 31 33 29 21 20 17 19 18 17 19 19 17 24 31 32 32 32 32 27 25 21 16 16 19 14
9 11 12 11 9 9 10 11 11 11 11 11 11 12 13 14 15 15 15 14 12 13 14 15 15 15 15 15 16 18 16 15 16 22 29 29 30 31 33 32 35 36 35 26 21 21 35 38 38 38 36 36 34 34 35 35 34 31 25 23 15 11
11 11 12 10 9 11 11 12 13 12 12 11 11 10 11 13 14 16 15 14 14 16 17 15 15 15 15 15 15 15 17 16 17 17 19 25 28 29 30 31 32 33 33 35 32 26 20 28 34 35 34 33 32 32 33 33 33 33 32 28 25 13
9 10 10 11 11 12 12 13 13 11 11 11 10 11 13 13 13 16 17 16 17 16 16 15 14 15 15 15 15 15 14 15 16 17 17 15 21 27 28 30 31 32 32 33 34 35 32 31 32 36 35 35 36 35 32 31 32 31 32 32 19 12
10 11 11 12 13 13 12 13 14 12 12 11 11 11 12 14 15 16 17 16 17 16 15 15 14 14 15 14 15 15 15 15 15 16 16 18 16 15 18 23 27 28 30 30 32 32 32 31 31 31 31 31 32 32 32 29 23 28 30 25 15 12
11 11 11 13 12 12 12 14 13 11 11 11 11 12 14 16 17 16 18 24 20 15 15 14 14 14 14 15 14 14 15 16 16 15 16 16 17 17 17 15 15 20 25 23 23 26 30 31 32 31 30 30 28 30 31 30 20 17 15 16 14 12
10 12 11 10 11 11 12 14 13 12 11 11 12 14 15 15 14 14 14 14 15 14 13 13 14 14 14 14 15 15 16 16 16 16 15 15 16 17 17 16 14 14 18 30 28 30 30 30 29 28 29 29 29 28 27 18 16 16 14 13 12 11
Wind_Direction
26 23 26 23 24 23 22 22 24 24 24 21 21 19 17 15 13 10 10 13 13 11 11 11 10 7 2 354 356 357 356 350 341 331 319 311 309 306 300 283 274 264 242 225 232 236 238 237 236 233 231 223 228 225 229 226 227 230 229 227 223 226
15 12 11 10 11 12 13 15 17 19 18 20 20 20 19 16 15 12 14 14 11 10 10 9 9 5 3 1 0 356 358 356 353 347 337 331 320 312 305 296 287 283 276 258 240 236 237 237 235 234 232 228 229 228 226 222 219 229 233 232 225 227
22 22 11 5 6 3 5 9 13 10 7 8 10 14 11 16 13 10 10 7 4 11 13 7 7 4 2 359 2 360 356 353 351 351 342 331 339 335 325 313 306 300 285 272 256 240 241 242 239 232 234 234 234 231 230 229 223 225 230 231 231 226
20 28 22 21 28 18 15 18 20 12 9 1 353 356 2 2 2 359 355 354 357 4 12 11 11 4 356 0 353 355 349 350 353 347 343 346 340 342 335 331 320 310 306 291 270 257 244 242 242 239 235 234 238 237 230 232 232 232 231 227 231 227
15 15 21 23 26 20 12 25 30 15 8 7 350 359 358 355 337 334 331 341 351 358 358 2 2 360 3 358 353 354 346 340 340 347 348 349 346 347 344 332 325 317 311 304 296 279 266 256 247 242 240 239 237 239 236 233 232 234 236 233 232 227
8 15 28 21 15 18 10 14 26 11 350 346 343 342 347 348 344 335 329 334 342 337 349 357 350 355 357 357 350 344 346 343 343 339 348 352 346 345 342 337 331 320 309 305 300 293 284 274 264 256 246 244 244 243 242 239 235 234 235 237 237 233
7 9 11 4 7 11 6 10 8 7 358 354 351 340 344 341 330 336 332 334 339 339 342 341 345 356 355 346 341 340 338 339 341 345 349 350 347 343 337 332 331 328 321 310 303 299 290 281 275 268 260 253 248 246 246 244 242 240 240 240 240 236
355 360 360 359 357 357 354 357 359 357 356 353 351 345 343 344 341 338 340 337 339 336 337 340 336 334 340 345 344 336 333 334 336 334 335 345 340 336 337 331 329 326 321 313 306 299 294 289 284 276 270 265 259 252 249 250 248 248 247 244 241 238
318 323 334 338 340 346 347 348 349 348 347 343 343 343 342 342 341 340 339 338 335 334 335 336 333 329 329 334 335 333 331 332 334 333 329 329 329 328 326 327 321 315 309 305 304 299 294 293 288 283 276 272 267 260 257 256 253 251 250 250 248 242
267 275 287 306 312 324 325 330 330 330 329 329 326 328 330 333 335 333 331 330 328 326 330 330 329 327 325 329 330 330 331 331 328 323 318 320 318 319 321 323 320 314 307 298 297 293 293 288 286 280 276 274 267 263 262 258 256 255 253 253 251 246
259 270 275 284 296 299 308 309 306 303 305 308 312 314 320 325 327 327 326 325 324 325 326 325 321 315 321 325 324 322 324 326 324 319 314 310 304 298 296 300 305 310 310 301 292 292 289 286 280 280 276 278 272 265 263 261 257 255 258 257 254 248
268 274 279 286 288 298 300 301 300 301 298 295 297 302 308 317 315 314 313 313 312 316 319 321 319 319 320 317 317 322 322 322 318 314 310 303 298 296 298 295 292 293 297 301 301 295 289 280 273 267 270 266 266 269 266 263 260 258 257 257 258 256
274 281 288 293 296 293 294 290 294 293 289 290 295 298 299 301 299 301 304 307 308 311 314 316 317 319 318 315 313 306 303 306 308 309 308 306 301 298 293 281 278 282 285 292 292 290 286 278 270 265 265 264 264 264 264 264 264 259 258 257 256 256
278 286 291 294 293 291 288 287 285 282 285 289 291 291 292 285 284 291 295 299 305 309 311 312 313 311 307 311 309 310 312 309 311 310 307 302 298 298 296 292 285 275 270 278 281 284 281 277 270 272 273 273 267 264 263 261 261 260 258 258 255 255
279 281 288 288 287 286 282 286 286 286 289 293 294 299 294 292 294 296 297 300 301 302 302 304 306 306 303 298 298 302 305 306 306 303 301 302 300 293 291 291 290 287 282 273 262 265 273 280 278 272 276 277 272 263 261 263 258 255 256 256 255 255
281 288 292 290 287 289 295 290 288 288 295 299 301 300 298 295 294 293 294 296 294 296 297 296 294 294 296 298 301 297 297 301 300 303 305 299 300 294 288 285 285 287 288 282 282 279 273 265 264 271 272 274 273 269 261 254 257 256 255 254 252 252
288 290 291 294 302 303 297 296 298 305 306 309 307 303 298 295 292 291 291 294 294 295 292 288 288 288 288 289 291 295 294 296 294 298 299 299 299 298 294 291 288 283 282 281 282 284 283 276 264 259 262 268 271 269 268 258 256 254 253 254 253 251
290 290 291 298 298 295 298 300 307 311 309 311 308 303 300 298 296 292 294 295 295 293 290 291 290 288 289 284 282 287 288 291 293 296 294 294 292 289 290 285 281 284 285 282 280 280 280 281 275 266 254 256 265 271 269 260 257 255 253 252 252 252
289 291 295 294 297 306 306 310 317 317 315 314 310 311 306 303 298 297 298 298 298 296 292 290 290 293 292 291 287 285 287 291 290 289 290 290 288 285 285 285 283 283 283 285 283 278 277 277 274 272 264 261 260 258 261 263 261 256 254 252 251 249
297 301 309 311 310 314 320 322 322 319 315 314 315 311 306 304 299 299 299 296 295 294 296 299 298 294 291 290 286 289 293 294 291 288 284 278 280 282 285 283 279 278 279 280 280 280 283 281 276 270 264 261 260 256 255 254 255 258 259 259 252 250
320 313 309 309 314 324 329 327 327 327 320 316 313 308 304 302 300 302 302 302 301 301 299 298 295 293 294 292 290 290 290 289 288 284 285 284 279 277 279 275 273 273 274 274 275 282 282 280 279 276 270 265 258 251 249 251 250 250 250 255 257 251
313 308 315 321 321 326 335 344 335 322 315 309 309 306 303 304 307 308 307 303 301 301 300 298 296 293 293 292 293 292 289 287 287 281 277 274 277 280 277 274 272 272 273 271 274 276 279 281 280 277 273 265 260 251 245 246 247 248 250 246 249 252
312 313 320 322 330 346 348 346 329 314 314 310 308 304 307 311 311 309 305 303 300 297 296 299 298 297 296 294 294 291 287 285 280 281 281 281 276 272 270 271 271 273 274 271 269 274 274 271 272 272 270 266 259 252 240 242 241 245 248 252 248 244
315 312 317 333 357 349 341 334 316 311 313 311 307 312 316 314 309 305 301 299 299 301 301 300 296 293 290 290 290 289 286 283 282 282 281 280 276 274 273 272 274 272 273 272 269 269 267 266 265 265 267 265 260 253 242 240 242 238 246 247 247 247
317 315 322 338 339 335 328 330 312 309 309 303 311 317 313 309 306 305 303 301 299 299 297 297 295 294 295 291 290 288 287 290 287 284 281 280 278 275 273 273 273 271 267 265 266 265 265 266 264 261 262 262 259 253 246 241 240 241 240 241 246 244
321 316 314 325 324 327 332 332 311 306 308 305 316 310 308 305 304 302 299 297 293 293 292 293 293 292 293 291 293 290 285 285 285 284 281 278 276 275 274 273 271 268 267 268 268 266 266 269 269 265 262 259 257 256 246 243 242 238 236 235 242 243
320 314 307 315 330 327 332 332 320 317 305 305 312 308 307 305 303 302 296 296 295 293 293 291 289 288 288 287 288 287 286 286 287 285 283 280 278 275 274 273 273 270 271 272 272 273 274 272 273 270 266 263 259 258 251 247 240 238 238 238 239 240
314 307 305 310 336 326 332 335 329 306 300 311 310 305 306 305 303 299 294 293 292 289 291 292 289 285 282 281 280 279 280 284 288 286 285 283 279 277 276 276 275 274 274 274 275 276 275 275 276 276 272 269 265 260 257 256 252 245 240 237 237 238
311 305 308 305 321 329 324 322 306 295 299 303 302 302 301 299 297 294 292 293 293 292 291 290 289 290 288 285 287 284 285 285 283 281 283 281 281 280 279 279 278 278 277 278 280 280 279 276 274 270 269 268 267 263 256 254 255 249 245 242 242 245
299 304 306 303 313 317 310 304 302 302 299 297 301 301 299 296 295 293 294 294 295 293 292 289 289 289 291 292 290 289 287 283 280 281 279 281 280 280 280 278 277 278 280 282 282 283 283 280 280 277 281 285 279 274 267 256 243 240 236 240 239 240
301 297 300 298 305 303 299 296 294 296 294 294 298 299 298 297 297 294 293 294 294 291 289 287 289 294 294 291 288 280 276 283 284 279 279 270 267 269 272 272 271 271 273 274 276 280 281 279 278 278 279 276 276 280 284 276 257 239 242 243 244 243
299 300 297 294 297 294 296 292 295 293 290 296 297 296 295 297 298 296 294 293 292 291 293 295 296 294 289 287 286 285 283 272 276 279 279 282 278 277 276 276 275 275 270 272 267 263 270 273 274 277 279 280 282 283 280 277 272 266 261 256 253 246
305 297 292 291 296 295 295 296 296 293 292 291 294 295 294 296 297 296 295 295 293 294 297 296 292 288 286 285 286 286 285 289 281 278 280 280 283 283 282 280 279 279 278 276 278 274 273 276 278 278 276 274 271 271 274 276 276 275 270 265 260 251
301 296 294 298 298 297 298 297 295 295 295 294 293 292 292 293 295 295 295 296 294 295 294 288 286 287 286 286 284 284 287 287 291 288 278 281 284 286 287 287 285 284 282 281 281 281 278 276 276 278 277 276 275 271 266 263 267 267 267 265 259 250
296 294 295 294 297 298 298 297 296 298 294 293 296 298 293 291 291 292 294 293 293 291 289 287 287 285 286 286 286 286 286 289 291 292 295 286 283 285 286 286 286 285 285 284 284 283 284 285 287 285 281 279 281 282 283 277 261 256 256 256 252 240
293 294 291 291 292 294 295 292 292 295 295 299 299 296 292 294 293 291 290 291 291 291 289 288 285 285 285 283 285 285 287 286 286 288 289 294 296 290 284 283 284 284 285 285 285 284 284 286 285 286 284 279 276 278 280 280 280 265 254 249 243 235
292 289 285 286 288 290 290 287 290 296 299 299 297 298 300 297 292 289 288 287 288 289 288 286 286 286 286 286 285 285 286 285 286 286 289 290 292 293 293 293 289 286 286 286 286 284 284 285 286 285 285 283 277 272 272 277 279 271 253 245 238 233
288 285 280 279 284 283 286 290 295 299 299 299 301 305 299 293 294 294 292 293 291 290 288 288 289 288 287 287 286 286 285 286 287 287 285 286 286 288 290 291 288 289 291 290 288 288 289 290 290 290 287 285 280 271 262 263 263 267 254 238 226 223